#timestamp,LO_Frequency,Hit,StdDev 
1705327215.0,286047002.7,N
1705327215.9,286047002.7,N
1705327235.7,286047001.8,N
1705327255.6,286047001.8,N
1705327275.4,286047001.8,N
1705327295.3,286047002.2,N
1705327315.1,286047002.2,N
1705327316.0,286047002.2,N
1705327335.8,286047000.6,N
1705327355.7,286046998.9,N
1705327375.5,286047000.9,N
1705327395.3,286046998.2,N
1705327415.2,286046999.0,N
1705327435.0,286047001.0,N
1705327435.9,286047001.0,N
1705327455.8,286046998.3,N
1705327475.6,286047001.0,N
1705327495.4,286047000.4,N
1705327515.3,286046998.4,N
1705327535.1,286046999.4,N
1705327555.8,286047000.5,N
1705327575.7,286047002.5,N
1705327595.5,286047001.0,N
1705327615.4,286047001.0,N
1705327635.2,286046998.1,N
1705327655.0,286046999.4,N
1705327655.9,286046999.4,N
1705327675.8,286047001.1,N
1705327695.6,286046999.1,N
1705327715.4,286046998.8,N
1705327735.3,286046998.9,N
1705327755.1,286046999.1,N
1705327775.9,286047001.1,N
1705327795.7,286047000.8,N
1705327815.5,286046998.4,N
1705327835.4,286047001.0,N
1705327855.2,286047001.2,N
1705327875.0,286046998.4,N
1705327875.9,286046998.4,N
1705327895.8,286046999.5,N
1705327915.6,286046998.6,N
1705327935.5,286046998.9,N
1705327955.3,286046998.1,N
1705327975.1,286046999.2,N
1705327995.9,286047000.4,N
1705328015.7,286047001.0,N
1705328035.5,286047001.1,N
1705328055.4,286047000.3,N
1705328075.2,286046998.2,N
1705328095.1,286047000.7,N
1705328096.0,286047000.7,N
1705328115.8,286047001.9,N
1705328135.6,286047001.8,N
1705328155.5,286047002.5,N
1705328175.3,286047002.5,N
1705328195.1,286047002.5,N
1705328215.9,286047000.4,N
1705328235.7,286047000.3,N
1705328255.6,286047000.4,N
1705328275.4,286047000.2,N
1705328295.2,286047000.9,N
1705328315.1,286047000.4,N
1705328316.0,286047000.4,N
1705328335.8,286046998.3,N
1705328355.6,286047000.1,N
1705328375.5,286047000.3,N
1705328395.3,286047000.9,N
1705328415.2,286047000.6,N
1705328435.9,286046998.6,N
1705328455.7,286047001.2,N
1705328475.6,286046998.7,N
1705328495.4,286046998.9,N
1705328515.2,286047000.0,N
1705328535.1,286047000.9,N
1705328536.0,286047000.9,N
1705328555.8,286047002.5,N
1705328575.7,286047002.8,N
1705328595.5,286047002.8,N
1705328615.3,286046998.2,N
1705328635.2,286047000.3,N
1705328655.0,286047000.0,N
1705328655.9,286047000.0,N
1705328675.8,286047000.8,N
1705328695.6,286046999.0,N
1705328715.4,286046998.9,N
1705328735.3,286046998.7,N
1705328755.1,286046998.7,N
1705328775.8,286046997.0,N
1705328795.7,286046998.4,N
1705328815.5,286046998.8,N
1705328835.4,286047000.0,N
1705328855.2,286047000.0,N
1705328875.0,286047001.2,N
1705328875.9,286047001.2,N
1705328895.8,286047000.9,N
1705328915.6,286047002.3,N
1705328935.4,286046998.9,N
1705328955.3,286047001.2,N
1705328975.1,286046999.5,N
1705328995.9,286046999.3,N
1705329015.7,286046998.5,N
1705329035.5,286046998.5,N
1705329055.4,286046999.1,N
1705329075.2,286047000.6,N
1705329095.0,286047000.9,N
1705329095.9,286047000.9,N
1705329115.8,286046999.0,N
1705329135.6,286046998.9,N
1705329155.5,286046998.8,N
1705329175.3,286046998.4,N
1705329195.1,286046998.3,N
1705329215.9,286046998.9,N
1705329235.7,286047001.0,N
1705329255.5,286047000.7,N
1705329275.4,286046998.6,N
1705329295.2,286046998.7,N
1705329315.1,286046999.7,N
1705329316.0,286046999.7,N
1705329335.8,286047001.1,N
1705329355.6,286047000.7,N
1705329375.5,286046999.5,N
1705329395.3,286046999.6,N
1705329415.2,286046996.5,Y
1705329435.9,286046999.6,P
1705329455.7,286046997.8,P
1705329475.6,286046996.9,P
1705329495.4,286046997.4,N
1705329515.2,286046998.8,N
1705329535.1,286047000.7,N
1705329536.0,286047000.7,N
1705329555.8,286047002.6,N
1705329575.7,286047002.5,N
1705329595.5,286047001.5,N
1705329615.3,286047000.4,N
1705329635.2,286047001.0,N
1705329655.0,286046998.7,N
1705329655.9,286046998.7,N
1705329675.7,286047000.5,N
1705329695.6,286046999.9,N
1705329715.4,286047000.3,N
1705329735.3,286047000.7,N
1705329755.1,286046998.6,N
1705329756.0,286046998.6,N
1705329775.8,286047000.7,N
1705329795.7,286047000.7,N
1705329815.5,286046998.5,N
1705329835.3,286046998.8,N
1705329855.2,286047001.0,N
1705329875.0,286047002.8,N
1705329875.9,286047002.8,N
1705329895.8,286047001.1,N
1705329915.6,286046999.7,N
1705329935.4,286047000.8,N
1705329955.3,286047000.5,N
1705329975.1,286046999.3,N
1705329995.8,286046999.2,N
1705330015.7,286046999.0,N
1705330035.5,286046998.5,N
1705330055.4,286046998.4,N
1705330075.2,286047000.4,N
1705330095.0,286047002.4,N
1705330095.9,286047002.4,N
1705330115.8,286047001.0,N
1705330135.6,286046998.5,N
1705330155.4,286046998.3,N
1705330175.3,286046998.7,N
1705330195.1,286047000.6,N
1705330215.9,286047001.1,N
1705330235.7,286047000.5,N
1705330255.5,286046998.9,N
1705330275.4,286046999.1,N
1705330295.2,286046999.2,N
1705330315.0,286046998.3,N
1705330316.0,286046998.3,N
1705330335.8,286046998.4,N
1705330355.6,286047001.1,N
1705330375.5,286047000.3,N
1705330395.3,286047001.2,N
1705330415.1,286046999.6,N
1705330435.9,286046999.3,N
1705330455.7,286046999.2,N
1705330475.6,286047000.8,N
1705330495.4,286046997.0,N
1705330515.2,286046996.6,N
1705330535.1,286046997.5,N
1705330536.0,286046997.5,N
1705330555.8,286046997.2,N
1705330575.6,286046996.5,N
1705330595.5,286046998.6,N
1705330615.3,286047001.0,N
1705330635.2,286046998.4,N
1705330655.9,286046996.8,N
1705330675.7,286046997.4,N
1705330695.6,286046997.2,N
1705330715.4,286046997.6,N
1705330735.2,286046997.9,N
1705330755.1,286046996.7,N
1705330756.0,286046996.7,N
1705330775.8,286046996.8,N
1705330795.7,286046996.9,N
